Location: Lhota
(50.0887°N, 14.0116°E)
Time: 10:09:43
(UTC+00:00)

Cosmos 1743 - Pass Details

Date: 19 May 2025
Orbit: 431 x 441 km, 82.5° (Epoch: 23 June)

Event Time Altitude Azimuth Distance (km) Brightness Sun altitude
Rises 20:15:54 0° 342° (NNW) 2,460 7.6 -11.1°
Reaches altitude 10° 20:18:05 10° 333° (NNW) 1,581 6.6 -11.3°
Maximum altitude 20:21:13 33° 268° (W) 769 3.9 -11.6°
Drops below altitude 10° 20:24:19 10° 202° (SSW) 1,562 4.8 -11.9°
Enters shadow 20:25:02 - 198° (SSW) 1,843 5.2 -12.0°
